Regional Weather Roundup
Issued by NWS

Home | Current Version | Previous Version | Graphics & Text | Print | Product List | Glossary On
Versions: 1 2 3 4 5 6 7 8 9 10 11 12 13 14 15 16 17 18 19 20 21 22 23 24 25 26 27
000
ASUS45 KBOI 171910
RWRID

IDAHO REGIONAL WEATHER ROUNDUP
NATIONAL WEATHER SERVICE BOISE ID
1200 PM MST WED JAN 17 2018

NOTE: "FAIR" INDICATES FEW OR NO CLOUDS BELOW 12000 FEET
WITH NO SIGNIFICANT WEATHER AND/OR OBSTRUCTIONS TO VISIBILITY

IDZ012-014-172000-
SOUTHWEST IDAHO


CITY           SKY/WX    TMP DP  RH WIND       PRES   REMARKS
BOISE          CLOUDY    39  32  76 SE16      30.36R WCI  30
CALDWELL       CLOUDY    41  33  73 E14       30.39R
MOUNTAIN HOME  PTSUNNY   39  39 100 SE18      30.36R WCI  29
$$

IDZ016-017-172000-
SOUTHCENTRAL IDAHO


CITY           SKY/WX    TMP DP  RH WIND       PRES   REMARKS
BURLEY         MOSUNNY   41  32  70 NE7G20    30.34F
JEROME         MOSUNNY   41  31  67 E14       30.35F
TWIN FALLS     MOSUNNY   37  34  89 E10       30.34F WCI  30
$$

IDZ019>023-172000-
SOUTHEAST IDAHO


CITY           SKY/WX    TMP DP  RH WIND       PRES   REMARKS
IDAHO FALLS    MOSUNNY   32  27  81 N3        30.43F
POCATELLO      MOSUNNY   38  30  73 VRB3      30.42F
REXBURG        MOSUNNY   30  22  72 NE6       30.42F WCI  24
$$

IDZ006-010-011-018-031-032-172000-
CENTRAL IDAHO MOUNTAINS


CITY           SKY/WX    TMP DP  RH WIND       PRES   REMARKS
MCCALL         CLOUDY    28  25  88 W6        30.31R WCI  22
HAILEY         PTSUNNY   30  18  59 NW9       30.38F WCI  22
STANLEY          N/A     23  18  81 N5        30.37F WCI  17
SALMON         PTSUNNY   30  21  69 CALM      30.41F
CHALLIS        CLOUDY    23  20  88 NW3       30.38F
$$

IDZ002-004-006-007-026-172000-
NORTHERN IDAHO


CITY           SKY/WX    TMP DP  RH WIND       PRES   REMARKS
LEWISTON       CLOUDY    47  37  68 VRB7      30.20S
LOWELL           N/A     39  36  89 N5        30.28S
COEUR D`ALENE  CLOUDY    36  35  96 NE10      30.19R WCI  28
MULLAN PASS    PTSUNNY   28  26  92 VRB6      30.11F WCI  22
$$




USA.gov is the U.S. government's official web portal to all federal, state and local government web resources and services.